Location: Kawakawa
(35.3830°S, 174.0670°E)
Time: 23:49:03
(UTC+13:00)

Altair - Pass Details

Date: 19 December 2019
Orbit: 1502 x 1682 km, 47.2° (Epoch: 28 January)

Event Time Altitude Azimuth Distance (km) Brightness Sun altitude
Rises 05:24:42 0° 356° (N) 4,644 9.6 -7.6°
Reaches altitude 10° 05:28:39 10° 11° (N) 3,691 9.3 -6.9°
Maximum altitude 05:35:08 21° 55° (NE) 2,950 9.3 -5.8°
Drops below altitude 10° 05:41:46 10° 100° (E) 3,805 10.9 -4.7°
Sets 05:45:53 0° 114° (ESE) 4,829 12.6 -4.0°
